Weather History for Washington, GA

Change the Weather History Date:

Wednesday, July 17, 2013

  Actual Average (KDBN) Record (KDBN)
Temperature  
Mean Temperature 80 °F -  
Max Temperature 89 °F 94 °F 103 °F (1977)
Min Temperature 71 °F 68 °F 58 °F (1967)
Cooling Degree Days 15    
Growing Degree Days 30 (Base 50)    
Moisture  
Dew Point 73 °F    
Average Humidity 85    
Maximum Humidity 100    
Minimum Humidity 49    
Precipitation  
Precipitation 0.00 in - - ()
Sea Level Pressure  
Sea Level Pressure 30.24 in    
Wind  
Wind Speed 3 mph (NW)    
Max Wind Speed 15 mph    
Max Gust Speed 26 mph    
Visibility 9 miles    
Events Rain , Thunderstorm    
Averages and records for this station are not official NWS values.
T = Trace of Precipitation, MM = Missing Value Source: NWS Daily Summary

Daily Weather History Graph

Daily Weather History Graph

Search for Another Location

Airport:

Trip Planner

Search our weather history database for the weather conditions in past years. The results will help you decide how hot, cold, wet, or windy it might be!

Date:

Astronomy

Jul. 17, 2013 Rise Set
Actual Time 6:33 AM EDT 8:41 PM EDT
Civil Twilight 6:04 AM EDT 9:09 PM EDT
Nautical Twilight 5:30 AM EDT 9:44 PM EDT
Astronomical Twilight 4:53 AM EDT 10:21 PM EDT
Moon 3:32 PM EDT (7/17) 1:33 AM EDT (7/17)
Length of Visible Light 15h 04m
Length of Day
14h 08m
Waxing Gibbous, 67% of the Moon is Illuminated
Jul 17
Waxing Gibbous
Jul 22
Full
Jul 29
Last Quarter
Aug 6
New
Aug 14
First Quarter

Hourly Weather History & Observations

Time (EDT) Temp. Heat Index Dew Point Humidity Pressure Visibility Wind Dir Wind Speed Gust Speed Precip Events Conditions
12:15 AM 75.2 °F - 75.2 °F 100% 30.26 in 10.0 mi NW 3.5 mph - N/A   Clear
12:35 AM 75.2 °F - 75.2 °F 100% 30.26 in 10.0 mi NW 3.5 mph - N/A   Clear
12:55 AM 75.2 °F - 73.4 °F 94% 30.27 in 10.0 mi NW 4.6 mph - N/A   Clear
1:15 AM 77.0 °F - 73.4 °F 89% 30.26 in 10.0 mi NW 4.6 mph - N/A   Clear
1:35 AM 75.2 °F - 73.4 °F 94% 30.26 in 10.0 mi NW 4.6 mph - N/A   Clear
1:55 AM 75.2 °F - 73.4 °F 94% 30.26 in 10.0 mi NNW 4.6 mph - N/A   Clear
2:15 AM 75.2 °F - 73.4 °F 94% 30.25 in 10.0 mi NW 3.5 mph - N/A   Clear
2:55 AM 75.2 °F - 73.4 °F 94% 30.24 in 10.0 mi WNW 3.5 mph - N/A   Clear
3:15 AM 75.2 °F - 75.2 °F 100% 30.25 in 10.0 mi Calm Calm - N/A   Clear
3:35 AM 75.2 °F - 73.4 °F 94% 30.25 in 10.0 mi Calm Calm - N/A   Clear
3:55 AM 75.2 °F - 73.4 °F 94% 30.24 in 10.0 mi NW 3.5 mph - N/A   Clear
4:15 AM 75.2 °F - 73.4 °F 94% 30.25 in 10.0 mi NNW 4.6 mph - N/A   Clear
4:35 AM 75.2 °F - 73.4 °F 94% 30.25 in 10.0 mi Calm Calm - N/A   Clear
4:55 AM 75.2 °F - 75.2 °F 100% 30.24 in 10.0 mi Calm Calm - N/A   Clear
5:15 AM 75.2 °F - 75.2 °F 100% 30.25 in 10.0 mi NNW 4.6 mph - N/A   Clear
5:35 AM 75.2 °F - 73.4 °F 94% 30.25 in 10.0 mi NNW 4.6 mph - N/A   Clear
5:55 AM 75.2 °F - 73.4 °F 94% 30.26 in 10.0 mi NW 4.6 mph - N/A   Clear
6:15 AM 75.2 °F - 73.4 °F 94% 30.26 in 10.0 mi NNW 3.5 mph - N/A   Clear
6:35 AM 75.2 °F - 73.4 °F 94% 30.26 in 10.0 mi NW 3.5 mph - N/A   Clear
6:55 AM 75.2 °F - 75.2 °F 100% 30.26 in 10.0 mi NW 3.5 mph - N/A   Clear
7:15 AM 75.2 °F - 73.4 °F 94% 30.26 in 10.0 mi Calm Calm - N/A   Clear
7:35 AM 75.2 °F - 73.4 °F 94% 30.26 in 10.0 mi NW 3.5 mph - N/A   Clear
7:55 AM 77.0 °F - 75.2 °F 94% 30.27 in 10.0 mi NNW 3.5 mph - N/A   Clear
8:15 AM 78.8 °F - 75.2 °F 89% 30.27 in 10.0 mi NW 3.5 mph - N/A   Clear
8:35 AM 80.6 °F 87.1 °F 77.0 °F 89% 30.28 in 10.0 mi NNW 3.5 mph - N/A   Clear
8:55 AM 80.6 °F 85.4 °F 73.4 °F 79% 30.28 in 10.0 mi Calm Calm - N/A   Clear
9:15 AM 80.6 °F 85.4 °F 73.4 °F 79% 30.28 in 10.0 mi NW 4.6 mph - N/A   Clear
9:35 AM 82.4 °F 88.2 °F 73.4 °F 74% 30.27 in 10.0 mi NW 4.6 mph - N/A   Clear
9:55 AM 82.4 °F 87.2 °F 71.6 °F 70% 30.27 in 10.0 mi NW 4.6 mph - N/A   Clear
10:15 AM 86.0 °F 91.8 °F 71.6 °F 62% 30.27 in 10.0 mi NW 3.5 mph - N/A   Clear
10:55 AM 86.0 °F 91.8 °F 71.6 °F 62% 30.27 in 10.0 mi Calm Calm - N/A   Clear
11:15 AM 87.8 °F 93.8 °F 71.6 °F 58% 30.26 in 10.0 mi Calm Calm - N/A   Clear
11:35 AM 87.8 °F 93.8 °F 71.6 °F 58% 30.26 in 10.0 mi NW 3.5 mph - N/A   Clear
11:55 AM 87.8 °F 93.8 °F 71.6 °F 58% 30.26 in 10.0 mi Calm Calm - N/A   Clear
12:15 PM 87.8 °F 93.8 °F 71.6 °F 58% 30.26 in 10.0 mi Calm Calm - N/A   Clear
12:35 PM 87.8 °F 92.6 °F 69.8 °F 55% 30.26 in 10.0 mi Calm Calm - N/A   Clear
12:55 PM 87.8 °F 92.6 °F 69.8 °F 55% 30.25 in 10.0 mi SW 3.5 mph - N/A   Clear
1:15 PM 89.6 °F 96.2 °F 71.6 °F 55% 30.24 in 10.0 mi Calm Calm - N/A   Clear
1:35 PM 89.6 °F 94.7 °F 69.8 °F 52% 30.23 in 10.0 mi Calm Calm - N/A   Clear
1:55 PM 89.6 °F 94.7 °F 69.8 °F 52% 30.23 in 10.0 mi West 3.5 mph - N/A   Unknown
2:15 PM 89.6 °F 94.7 °F 69.8 °F 52% 30.22 in 10.0 mi Calm Calm - N/A   Unknown
2:35 PM 89.6 °F 93.4 °F 68.0 °F 49% 30.21 in 10.0 mi Calm Calm - N/A   Unknown
5:15 PM 89.6 °F 94.7 °F 69.8 °F 52% 30.14 in 10.0 mi Calm Calm - N/A Thunderstorm Thunderstorm
5:35 PM 89.6 °F 96.2 °F 71.6 °F 55% 30.15 in 10.0 mi Calm Calm - N/A Thunderstorm Clear
5:55 PM 86.0 °F 93.4 °F 73.4 °F 66% 30.16 in 10.0 mi WNW 11.5 mph - N/A Thunderstorm Scattered Clouds
6:15 PM 78.8 °F - 73.4 °F 83% 30.16 in 3.0 mi NNW 10.4 mph - N/A Rain , Thunderstorm Heavy Thunderstorms and Rain
6:35 PM 75.2 °F - 75.2 °F 100% 30.15 in 5.0 mi NW 5.8 mph - N/A Rain , Thunderstorm Light Thunderstorms and Rain
6:55 PM 75.2 °F - 75.2 °F 100% 30.15 in 7.0 mi Calm Calm - N/A Thunderstorm Thunderstorm
7:15 PM 75.2 °F - 75.2 °F 100% 30.14 in 10.0 mi SSW 6.9 mph - N/A   Clear
7:35 PM 75.2 °F - 75.2 °F 100% 30.14 in 10.0 mi Calm Calm - N/A Rain Light Rain
7:55 PM 75.2 °F - 75.2 °F 100% 30.16 in 7.0 mi Calm Calm - N/A Thunderstorm Clear
8:15 PM 75.2 °F - 75.2 °F 100% 30.19 in 10.0 mi South 3.5 mph - N/A Rain , Thunderstorm Light Thunderstorms and Rain
8:35 PM 75.2 °F - 73.4 °F 94% 30.26 in 2.5 mi NNE 15.0 mph 26.5 mph N/A Rain , Thunderstorm Heavy Thunderstorms and Rain
8:55 PM 71.6 °F - 71.6 °F 100% 30.25 in 1.2 mi NE 12.7 mph 23.0 mph N/A Rain , Thunderstorm Heavy Thunderstorms and Rain
9:15 PM 71.6 °F - 71.6 °F 100% 30.23 in 7.0 mi Calm Calm - N/A Rain , Thunderstorm Light Thunderstorms and Rain
9:35 PM 71.6 °F - 71.6 °F 100% 30.22 in 7.0 mi NNE 3.5 mph - N/A Rain , Thunderstorm Light Thunderstorms and Rain
9:55 PM 71.6 °F - 71.6 °F 100% 30.21 in 10.0 mi NW 5.8 mph - N/A Rain Light Rain
10:15 PM 71.6 °F - 71.6 °F 100% 30.22 in 10.0 mi NW 3.5 mph - N/A Rain Light Rain
10:35 PM 71.6 °F - 71.6 °F 100% 30.23 in 7.0 mi NW 6.9 mph - N/A Rain Rain
10:55 PM 71.6 °F - 71.6 °F 100% 30.24 in 7.0 mi NW 5.8 mph - N/A Rain Rain
11:15 PM 71.6 °F - 71.6 °F 100% 30.24 in 7.0 mi WNW 6.9 mph - N/A Rain Light Rain
11:35 PM 71.6 °F - 71.6 °F 100% 30.23 in 7.0 mi WNW 6.9 mph - N/A   Mostly Cloudy
11:55 PM 71.6 °F - 71.6 °F 100% 30.24 in 7.0 mi WNW 5.8 mph - N/A   Scattered Clouds